Starlink 5244

operational
NORAD ID: 54199 Int'l Des: 2022-141 Owner: SPXS Country: US Constellation: starlink
LEOCIRCULAR

About Starlink 5244

Description loading...

Live Position

Loading 3D Globe...

Upcoming Passes

Altitude History

Altitude vs Time

uPlot chart will show altitude changes over time

Two-Line Element Set

1 54199U 22141AU 26063.15649546 -.00001468 00000-0 -74169-4 0 9997
2 54199 53.2198 18.8802 0001465 97.9978 262.1180 15.08838743185168
Epoch: Mar 4, 2026 • Age: 24 hours

Current Status

Altitude 541.3 km
Velocity 7.59 km/s
Sub-Earth Point -4.75°S, 41.16°E
Launch Date Oct 28, 2022
Age 3.3 years
Type internet

Technical Details

Classification Payload
Mass 305.00 kg
Dry Mass 290.00 kg
Total Mass 305.00 kg
Length 0.20 m
Diameter 2.80 m
Span 9.00 m
Shape Box + pan
Manufacturer SPXS
Bus Type Starlink
Phase Status In Orbit
Owner/State SPXS/US

Large Constellations

Loading constellations...